F1IRU-13 Weather Reports


time (UTC)temp
C
wind
direction
speed
KPH
gust
KPH
rain 1hr
cm
rain 24hr
cm
rain mn
cm
humidity
%
barometer
mb
20260506094415 12 69 1.6 8.0 0.00 0.08 0.03 93 1009.5
20260506093905 12 52 1.6 8.0 0.00 0.08 0.03 93 1009.4
20260506093355 12 71 1.6 9.7 0.00 0.08 0.03 92 1009.4
20260506093122 12 69 1.6 9.7 0.00 0.08 0.03 92 1009.2
20260506092353 12 37 1.6 8.0 0.00 0.08 0.03 92 1009.2
20260506091833 12 72 0.0 6.4 0.00 0.08 0.03 92 1009.1
20260506091333 12 72 0.0 4.8 0.00 0.08 0.03 93 1009.1
20260506090805 12 72 1.6 4.8 0.00 0.08 0.03 92 1009.1
20260506090245 12 72 1.6 9.7 0.00 0.08 0.03 92 1009.1
20260506085734 12 72 1.6 8.0 0.00 0.08 0.03 92 1009.1
20260506085232 12 72 1.6 8.0 0.00 0.08 0.03 92 1008.9
20260506085002 12 71 3.2 8.0 0.00 0.08 0.03 91 1008.9
20260506084504 12 70 3.2 9.7 0.00 0.08 0.03 91 1008.9
20260506083729 12 71 3.2 9.7 0.00 0.08 0.03 91 1008.7
20260506083452 12 67 4.8 9.7 0.00 0.08 0.03 91 1008.7
20260506082720 12 75 4.8 11.3 0.00 0.08 0.03 91 1008.8
20260506082221 12 71 3.2 11.3 0.00 0.08 0.03 91 1008.6
20260506081721 12 58 3.2 11.3 0.00 0.08 0.03 91 1008.7
20260506081219 12 62 3.2 11.3 0.00 0.08 0.03 91 1008.6
20260506080721 12 69 1.6 8.0 0.00 0.08 0.03 91 1008.7
20260506080211 12 68 3.2 9.7 0.00 0.10 0.03 92 1008.7
20260506073314 12 269 0.0 0.0 0.00 0.10 0.03 92 1008.4
20260506072520 12 269 0.0 1.6 0.00 0.10 0.03 92 1008.3
20260506072012 12 269 0.0 1.6 0.00 0.10 0.03 93 1008.4
20260506071726 12 269 0.0 0.0 0.00 0.10 0.03 93 1008.2
20260506070956 12 269 0.0 0.0 0.00 0.10 0.03 93 1008.2
20260506070446 12 269 0.0 0.0 0.00 0.10 0.03 93 1008.2
20260506062217 11 269 0.0 0.0 0.00 0.10 0.03 93 1008.1
20260506061709 11 269 0.0 0.0 0.00 0.10 0.03 93 1008.0
20260506061203 11 269 0.0 0.0 0.00 0.10 0.03 93 1008.0
20260506060654 11 269 0.0 0.0 0.00 0.10 0.03 93 1008.0
20260506060139 11 269 0.0 0.0 0.00 0.10 0.03 93 1008.0
20260506050848 11 269 0.0 0.0 0.00 0.10 0.03 93 1007.7
20260506050326 11 269 0.0 0.0 0.00 0.10 0.03 93 1007.6
20260506044720 11 269 0.0 0.0 0.03 0.10 0.03 93 1007.6
20260506044220 11 269 0.0 0.0 0.03 0.10 0.03 93 1007.6
20260506043716 11 269 0.0 0.0 0.03 0.10 0.03 93 1007.6
20260506043208 11 269 0.0 0.0 0.03 0.10 0.03 93 1007.5
20260506042701 11 269 0.0 0.0 0.03 0.10 0.03 93 1007.4
20260506042152 11 269 0.0 0.0 0.03 0.10 0.03 93 1007.4
20260506041643 11 269 0.0 0.0 0.03 0.10 0.03 93 1007.3
20260506041121 11 269 0.0 0.0 0.03 0.10 0.03 93 1007.4
20260506040616 11 269 0.0 0.0 0.03 0.10 0.03 93 1007.4
20260506040116 11 269 0.0 0.0 0.03 0.10 0.03 93 1007.4
20260506035613 11 269 0.0 0.0 0.03 0.10 0.03 93 1007.5
20260506035320 11 269 0.0 0.0 0.00 0.08 0.00 93 1007.5
20260506034527 11 269 0.0 0.0 0.00 0.08 0.00 93 1007.6
20260506034021 11 269 0.0 0.0 0.00 0.08 0.00 93 1007.4
20260506033520 11 269 0.0 0.0 0.00 0.08 0.00 93 1007.6
20260506033018 11 269 0.0 0.0 0.00 0.10 0.00 93 1007.4
20260506032424 11 269 0.0 0.0 0.00 0.10 0.00 93 1007.5
20260506031920 11 269 0.0 0.0 0.00 0.10 0.00 93 1007.5
20260506031401 11 269 0.0 0.0 0.00 0.10 0.00 93 1007.6
20260506030821 11 269 0.0 0.0 0.00 0.10 0.00 93 1007.6
20260506030548 11 269 0.0 0.0 0.00 0.10 0.00 93 1007.6
20260506030046 11 269 0.0 0.0 0.00 0.10 0.00 93 1007.6
20260506025300 11 269 0.0 0.0 0.00 0.10 0.00 93 1007.7
20260506024743 11 269 0.0 0.0 0.00 0.10 0.00 93 1007.5
20260506024235 11 269 0.0 0.0 0.00 0.10 0.00 93 1007.6
20260506023721 11 269 0.0 0.0 0.00 0.10 0.00 93 1007.6
20260506023219 11 269 0.0 0.0 0.00 0.10 0.00 93 1007.6
20260506022719 11 269 0.0 0.0 0.00 0.10 0.00 93 1007.6
20260506022218 11 269 0.0 0.0 0.00 0.10 0.00 93 1007.6
20260506021716 11 269 0.0 0.0 0.00 0.10 0.00 93 1007.6
20260506021213 11 269 0.0 0.0 0.00 0.10 0.00 93 1007.8
20260506020653 11 269 0.0 0.0 0.00 0.10 0.00 93 1007.8
20260506020153 11 269 0.0 0.0 0.00 0.10 0.00 93 1007.9
20260506015629 11 269 0.0 0.0 0.00 0.10 0.00 93 1007.8
20260506015623 11 269 0.0 0.0 0.00 0.10 0.00 93 1007.8
20260506014851 11 269 0.0 0.0 0.00 0.10 0.00 93 1007.7
20260506014346 11 269 0.0 0.0 0.00 0.10 0.00 93 1007.9
20260506013609 11 269 0.0 0.0 0.00 0.10 0.00 92 1007.9
20260506013105 11 269 0.0 0.0 0.00 0.10 0.00 93 1008.0
20260506012537 11 269 0.0 0.0 0.00 0.10 0.00 93 1008.0
20260506012028 10 269 0.0 0.0 0.00 0.10 0.00 92 1008.0
20260506011748 10 269 0.0 0.0 0.00 0.10 0.00 92 1008.1
20260506011015 10 269 0.0 0.0 0.00 0.10 0.00 92 1008.1
20260506010505 10 269 0.0 0.0 0.00 0.10 0.00 92 1008.1
20260506010004 10 269 0.0 0.0 0.00 0.10 0.00 92 1008.2
20260506005425 10 269 0.0 0.0 0.00 0.10 0.00 92 1008.2
20260506004924 10 269 0.0 0.0 0.00 0.10 0.00 92 1008.2
20260506004415 10 269 0.0 0.0 0.00 0.10 0.00 91 1008.2
20260506003907 10 269 0.0 0.0 0.00 0.10 0.00 91 1008.2
20260506003408 10 269 0.0 0.0 0.00 0.10 0.00 91 1008.2
20260506002903 10 269 0.0 0.0 0.00 0.10 0.00 91 1008.2
20260506002354 11 269 0.0 0.0 0.00 0.10 0.00 91 1008.2
20260506001836 11 269 0.0 0.0 0.00 0.10 0.00 91 1008.2
20260506001322 11 269 0.0 0.0 0.00 0.10 0.00 91 1008.3
20260506000820 11 269 0.0 0.0 0.00 0.10 0.00 91 1008.2
20260506000317 11 269 0.0 0.0 0.00 0.10 0.00 91 1008.3
20260505235815 11 269 0.0 0.0 0.00 0.10 0.00 91 1008.4
20260505235317 11 269 0.0 0.0 0.00 0.13 0.00 91 1008.3
20260505234802 11 269 0.0 0.0 0.00 0.13 0.00 91 1008.5
20260505234302 11 269 0.0 0.0 0.00 0.13 0.00 91 1008.5
20260505233757 11 269 0.0 0.0 0.00 0.13 0.00 90 1008.5
20260505233228 11 269 0.0 0.0 0.00 0.13 0.00 90 1008.4
20260505232727 11 269 0.0 0.0 0.00 0.13 0.00 90 1008.5
20260505232721 11 269 0.0 0.0 0.00 0.13 0.00 90 1008.5
20260505231659 11 269 0.0 0.0 0.00 0.13 0.00 90 1008.4
20260505231159 11 269 0.0 3.2 0.00 0.13 0.00 90 1008.3
20260505230631 11 269 0.0 3.2 0.00 0.13 0.00 90 1008.5
20260505230121 11 272 0.0 0.0 0.00 0.13 0.00 90 1008.6
20260505225622 11 272 0.0 3.2 0.00 0.13 0.00 90 1008.6
20260505225117 12 273 0.0 3.2 0.00 0.13 0.00 90 1008.5
20260505224616 12 285 0.0 0.0 0.00 0.13 0.00 90 1008.5
20260505224118 12 285 0.0 0.0 0.00 0.13 0.00 89 1008.4
20260505224103 12 285 0.0 0.0 0.00 0.13 0.00 89 1008.4
20260505223059 12 285 0.0 0.0 0.00 0.13 0.00 89 1008.5
20260505222547 12 285 0.0 0.0 0.00 0.13 0.00 89 1008.4
20260505222038 12 285 0.0 0.0 0.00 0.13 0.00 89 1008.6
20260505221529 12 285 0.0 0.0 0.00 0.13 0.00 89 1008.6
20260505221021 12 285 0.0 0.0 0.00 0.13 0.00 89 1008.6
20260505220515 12 285 0.0 6.4 0.00 0.13 0.00 89 1008.6
20260505220027 12 293 0.0 6.4 0.00 0.13 0.00 88 1008.5
20260505215453 13 321 0.0 4.8 0.00 0.13 0.13 88 1008.4
20260505214921 13 291 0.0 4.8 0.00 0.13 0.13 88 1008.6
20260505214644 13 338 0.0 4.8 0.00 0.13 0.13 88 1008.5
20260505214136 13 306 1.6 6.4 0.00 0.13 0.13 88 1008.8
20260505213357 13 267 1.6 6.4 0.00 0.13 0.13 88 1008.7
20260505212838 13 285 0.0 11.3 0.00 0.13 0.13 89 1008.9
20260505212329 13 269 1.6 11.3 0.00 0.13 0.13 89 1008.7
20260505211821 13 286 3.2 11.3 0.00 0.13 0.13 89 1008.9
20260505211317 13 280 1.6 11.3 0.00 0.13 0.13 89 1008.9
20260505210819 13 255 1.6 6.4 0.00 0.13 0.13 90 1008.8
20260505210316 13 255 0.0 6.4 0.00 0.13 0.13 90 1009.0
20260505210046 13 252 0.0 0.0 0.00 0.13 0.13 90 1008.9
20260505205316 13 252 0.0 0.0 0.00 0.13 0.13 89 1008.8
20260505204816 13 252 0.0 0.0 0.00 0.13 0.13 89 1008.9
20260505204240 13 252 0.0 0.0 0.00 0.13 0.13 89 1008.9
20260505203716 13 252 0.0 0.0 0.00 0.13 0.13 89 1009.0
20260505203212 13 252 0.0 0.0 0.00 0.13 0.13 89 1008.8
20260505203149 13 252 0.0 0.0 0.00 0.15 0.13 88 1008.9
20260505202121 13 252 0.0 0.0 0.03 0.15 0.13 88 1008.9
20260505201616 13 252 0.0 0.0 0.03 0.15 0.13 88 1008.7
20260505201116 13 252 0.0 0.0 0.03 0.15 0.13 88 1008.6
20260505200616 13 252 0.0 0.0 0.03 0.15 0.13 87 1008.7
20260505200055 13 252 0.0 0.0 0.03 0.15 0.13 87 1008.7
20260505195548 13 252 0.0 0.0 0.03 0.15 0.13 87 1008.6
20260505195020 13 252 0.0 1.6 0.03 0.15 0.13 86 1008.6
20260505194519 13 252 0.0 1.6 0.03 0.15 0.13 86 1008.4
20260505194248 13 241 0.0 1.6 0.03 0.15 0.13 86 1008.4
20260505193515 13 5 0.0 0.0 0.03 0.15 0.13 86 1008.4
20260505193235 14 296 0.0 0.0 0.03 0.15 0.13 86 1008.4
20260505192446 13 300 0.0 0.0 0.00 0.13 0.13 86 1008.4
20260505191944 13 300 0.0 0.0 0.00 0.13 0.10 85 1008.4
20260505191445 14 300 0.0 0.0 0.00 0.13 0.10 85 1008.6
20260505190942 14 298 0.0 0.0 0.00 0.13 0.10 85 1008.5
20260505190430 14 298 0.0 0.0 0.00 0.13 0.10 84 1008.4
20260505185926 14 298 0.0 0.0 0.00 0.13 0.10 84 1008.3
20260505185401 14 298 0.0 0.0 0.00 0.13 0.10 83 1008.3
20260505185128 14 298 0.0 0.0 0.00 0.13 0.10 83 1008.4
20260505184345 14 298 0.0 0.0 0.00 0.13 0.10 83 1008.4
20260505183840 14 298 0.0 0.0 0.00 0.13 0.10 83 1008.4
20260505183555 14 298 0.0 0.0 0.00 0.13 0.10 83 1008.4
20260505182813 14 298 0.0 0.0 0.00 0.13 0.10 83 1008.4
20260505182536 14 298 0.0 0.0 0.00 0.13 0.10 83 1008.4
20260505181745 14 298 0.0 0.0 0.00 0.13 0.10 82 1008.4
20260505181240 14 298 0.0 0.0 0.00 0.13 0.10 82 1008.5
20260505181000 14 298 0.0 1.6 0.00 0.15 0.10 82 1008.5
20260505180222 14 298 0.0 6.4 0.00 0.15 0.10 81 1008.4
20260505175951 14 298 0.0 6.4 0.00 0.15 0.10 81 1008.3
20260505175216 14 261 0.0 8.0 0.00 0.15 0.10 80 1008.4
20260505174710 14 275 0.0 8.0 0.00 0.15 0.10 80 1008.3
20260505174204 14 274 0.0 8.0 0.00 0.15 0.10 79 1008.2
20260505173704 15 295 1.6 9.7 0.00 0.15 0.10 79 1008.1
20260505173159 15 268 1.6 11.3 0.00 0.15 0.10 77 1008.0
20260505172655 15 349 3.2 16.1 0.00 0.15 0.10 77 1008.2
20260505172157 15 325 3.2 19.3 0.00 0.15 0.10 77 1008.1
20260505171924 15 315 3.2 19.3 0.00 0.15 0.10 76 1008.0
20260505171146 15 355 3.2 16.1 0.00 0.15 0.10 77 1008.0
20260505170638 15 347 4.8 19.3 0.00 0.15 0.10 77 1008.1
20260505170131 16 317 3.2 19.3 0.00 0.15 0.10 80 1007.9
20260505165854 16 341 1.6 11.3 0.00 0.15 0.10 80 1007.9
20260505165119 16 351 1.6 8.0 0.00 0.15 0.10 78 1008.0
20260505164605 16 294 3.2 17.7 0.00 0.15 0.10 75 1008.1
20260505164103 17 300 4.8 17.7 0.00 0.15 0.10 72 1008.0
20260505163535 17 236 4.8 12.9 0.03 0.15 0.10 68 1007.9
20260505163042 18 284 8.0 22.5 0.03 0.15 0.10 64 1007.9
20260505163035 18 341 8.0 22.5 0.03 0.15 0.10 66 1007.8
20260505162025 19 251 4.8 16.1 0.03 0.15 0.10 66 1007.9
20260505161750 18 317 4.8 16.1 0.03 0.15 0.10 65 1007.9
20260505161011 19 5 6.4 16.1 0.03 0.15 0.10 62 1008.0
20260505160457 18 312 4.8 14.5 0.03 0.15 0.10 62 1008.0
20260505152950 18 325 8.0 20.9 0.00 0.15 0.08 63 1007.7
20260505152443 18 319 8.0 25.7 0.00 0.15 0.08 61 1007.9
20260505151934 19 323 3.2 25.7 0.00 0.15 0.08 59 1007.8
20260505151426 20 292 1.6 9.7 0.00 0.15 0.08 60 1007.8
20260505151146 20 324 1.6 9.7 0.00 0.15 0.08 58 1007.7
20260505150412 20 346 3.2 11.3 0.00 0.15 0.08 58 1007.9
20260505150142 20 339 3.2 14.5 0.00 0.15 0.08 61 1007.9
20260505140336 19 286 4.8 16.1 0.00 0.15 0.08 61 1008.1
20260505130220 18 273 6.4 17.7 0.03 0.18 0.08 63 1008.3
20260505124943 18 334 6.4 16.1 0.03 0.18 0.08 66 1008.3
20260505124212 18 290 3.2 14.5 0.03 0.20 0.08 67 1008.4
20260505123718 18 295 4.8 19.3 0.03 0.20 0.08 67 1008.6
20260505123712 18 332 3.2 14.5 0.03 0.20 0.08 66 1008.4
20260505122710 18 267 4.8 19.3 0.03 0.20 0.08 63 1008.5
20260505122201 18 315 4.8 19.3 0.03 0.20 0.08 68 1008.4
20260505121653 18 258 3.2 17.7 0.03 0.20 0.08 66 1008.5
20260505121142 18 348 4.8 14.5 0.00 0.18 0.05 67 1008.4
20260505120914 18 286 4.8 14.5 0.00 0.18 0.05 66 1008.4
20260505120404 18 338 4.8 14.5 0.00 0.18 0.05 65 1008.4
20260505115623 18 316 6.4 19.3 0.00 0.18 0.05 65 1008.5
20260505115122 18 327 4.8 19.3 0.00 0.18 0.05 67 1008.6
20260505114846 18 339 3.2 11.3 0.00 0.18 0.05 70 1008.6
20260505114110 18 323 4.8 14.5 0.00 0.18 0.05 68 1008.6
20260505113609 17 298 4.8 16.1 0.00 0.20 0.05 70 1008.6
20260505113310 17 306 4.8 16.1 0.00 0.20 0.05 71 1008.6
20260505112542 17 322 3.2 12.9 0.00 0.20 0.05 71 1008.7
20260505112037 17 251 4.8 11.3 0.00 0.20 0.05 72 1008.7
20260505111811 17 329 4.8 17.7 0.00 0.20 0.05 73 1008.9
20260505111037 17 355 3.2 17.7 0.00 0.20 0.05 71 1008.8
20260505110538 16 313 3.2 17.7 0.00 0.20 0.05 76 1009.1
20260505101957 16 322 3.2 11.3 0.00 0.23 0.05 77 1008.8
20260505101722 16 316 3.2 16.1 0.00 0.23 0.05 77 1009.0
20260505100952 16 54 3.2 16.1 0.00 0.23 0.05 79 1008.8
20260505100446 15 304 3.2 16.1 0.00 0.23 0.05 79 1008.9
20260505095944 15 293 3.2 14.5 0.00 0.23 0.05 79 1008.9
20260505095424 15 335 4.8 17.7 0.00 0.23 0.05 79 1008.8